sat.trackr.live / text

‹ back to catalog

STARLINK-5665

NORAD 55361 · 2023-013AG

PAYLOAD ACTIVE UNKNOWN

§ Identity

Operator
Country
US
Launch date
2023-01-26
Launch site
AFETR
Launch vehicle
Mass (kg)
RCS (m²)

Purposes: comms

External: N2YO · Heavens-Above · Gunter

§ Orbital elements

Epoch: 2026-05-25T04:27:44.042688Z

Period
94.27 min
Inclination
43.0035°
Eccentricity
0.0001858
Mean motion
15.27574523 rev/d
Perigee alt
481.8 km
Apogee alt
484.3 km
Semi-major
6,861.2 km
B*
-2.2721e-5
RAAN
216.5855°
Arg perigee
274.6181°
Mean anomaly
85.4458°
Rev number
18,354

§ Raw data

STARLINK-56651 55361U 23013AG  26145.18592642 -.00000887  00000+0 -22721-4 0  99962 55361  43.0035 216.5855 0001858 274.6181  85.4458 15.27574523183546

JSON: /api/v1/satellites/55361 · /tle

For live sub-satellite position, see the globe view (requires WebGL).

§ Visibility from observer

Set your observer location to see the next 7 days of passes ≥ 10°. The values pass through the URL so the page stays shareable.

No JS? Fill the form by hand. The geolocation button needs JavaScript.